﻿Дата;Google;AdRiver
2013-05-25;15;0
2013-05-24;76;0
2013-05-23;80;0
2013-05-22;59;0
2013-05-21;58;0
2013-05-20;68;0
2013-05-19;83;0
2013-05-18;57;0
2013-05-17;46;0
2013-05-16;44;0
2013-05-15;43;0
2013-05-14;48;0
2013-05-13;81;0
2013-05-12;71;0
2013-05-11;53;0
2013-05-10;39;0
2013-05-09;29;0
2013-05-08;43;0
2013-05-07;37;0
2013-05-06;62;0
2013-05-05;53;0
2013-05-04;59;0
2013-05-03;47;1
2013-05-02;49;0
2013-05-01;19;0
2013-04-30;32;0
2013-04-29;38;0
2013-04-28;46;0
2013-04-27;46;0
2013-04-26;32;0
2013-04-25;46;0
2013-04-24;53;0
2013-04-23;39;0
2013-04-22;40;0
2013-04-21;52;0
2013-04-20;44;0
2013-04-19;18;0
2013-04-18;27;0
2013-04-17;39;0
2013-04-16;32;0
2013-04-15;44;0
2013-04-14;56;0
2013-04-13;45;0
2013-04-12;45;0
2013-04-11;37;0
2013-04-10;42;0
2013-04-09;47;0
2013-04-08;36;0
2013-04-07;57;0
2013-04-06;70;0
2013-04-05;48;0
2013-04-04;57;0
2013-04-03;58;0
2013-04-02;38;0
2013-04-01;30;0
2013-03-31;68;0
2013-03-30;77;0
2013-03-29;60;0
2013-03-28;11;0
2013-03-27;69;0
2013-03-26;70;0
2013-03-25;54;0
2013-03-24;56;0
2013-03-23;59;0
2013-03-22;52;0
2013-03-21;48;0
2013-03-20;52;0
2013-03-19;49;0
2013-03-18;37;0
2013-03-17;51;0
2013-03-16;42;0
2013-03-15;39;0
2013-03-14;36;0
2013-03-13;47;0
2013-03-12;38;0
2013-03-11;48;0
2013-03-10;59;0
2013-03-09;46;0
2013-03-08;45;0
2013-03-07;32;0
2013-03-06;31;0
2013-03-05;39;0
2013-03-04;46;0
2013-03-03;62;0
2013-03-02;66;0
2013-03-01;43;0
2013-02-28;53;0
2013-02-27;51;0
2013-02-26;43;0
2013-02-25;46;0
2013-02-24;67;0
2013-02-23;61;0
2013-02-22;45;0
2013-02-21;41;0
2013-02-20;55;0
2013-02-19;34;0
2013-02-18;57;0
2013-02-17;78;0
2013-02-16;83;0
2013-02-15;57;0
2013-02-14;56;0
2013-02-13;53;0
2013-02-12;45;0
2013-02-11;50;0
2013-02-10;82;0
2013-02-09;73;0
2013-02-08;79;0
2013-02-07;50;0
2013-02-06;66;1
2013-02-05;67;0
2013-02-04;64;0
2013-02-03;89;0
2013-02-02;71;0
2013-02-01;46;0
2013-01-31;82;0
2013-01-30;50;0
2013-01-29;99;0
2013-01-28;155;0
2013-01-27;192;0
2013-01-26;171;0
2013-01-25;158;0
2013-01-24;157;0
2013-01-23;164;0
2013-01-22;152;0
2013-01-21;122;0
2013-01-20;183;0
2013-01-19;186;0
2013-01-18;196;0
2013-01-17;170;0
2013-01-16;187;0
2013-01-15;192;0
2013-01-14;188;0
2013-01-13;219;0
2013-01-12;216;0
2013-01-11;210;0
2013-01-10;184;0
2013-01-09;203;0
2013-01-08;193;0
2013-01-07;199;0
2013-01-06;128;0
2013-01-05;30;0
2013-01-04;9;0
2013-01-03;5;0
